FLOCK 3R-3 (43734 NORAD) Tracking and Keplerian Element Data

This shows tracking and keplerian element data for the satellite.

Feedback or suggestion? Click here.




ElementValue
Catalog43734
NameFLOCK 3R-3
Epoch Orbit172
Epoch Day344.52024321
Epoch Year2018
RAAN49.5356
Inclination97.4842
Eccentricity0.0019955
Argument of Perigee288.3987
Mean Anonmoly179.6155
Mean Motion15.26729269
Decay Rate2.766E-05
L11 43734U 18096R 18344.52024321 .00002766 00000-0 10758-3 0 9999
L22 43734 97.4842 49.5356 0019955 288.3987 179.6155 15.26729269 1726

Live tracking and technical data element details for FLOCK 3R-3 (NORAD 43734). FLOCK 3R-3 can be tracked NOW for your location showing map with azimuth and elevation plus other details from your city location.

Track the satellite on the map from your city or location and see movement details for azimuth, elevation, latitude, longitude, range, height, and movement on the map or in text.







IsCatalogInMostPopularTable: catalog: 43734, numindb: 5
Update: records affected: 1



GetName: 43734 FLOCK 3R-3

Hit Count: updated at: Tue, 11 Dec 2018 03:10:27 GMT